Location: Bosdarros
(43.2167°N, 0.3667°W)
Time: 20:37:05
(UTC+00:00)

METEOR 2-8 DEB - Pass Details

Date: 01 November 2021
Orbit: 830 x 870 km, 82.5° (Epoch: 27 November)

Event Time Altitude Azimuth Distance (km) Brightness Sun altitude
Rises 20:04:55 0° 351° (N) 3,469 ? -35.3°
Reaches altitude 10° 20:07:22 10° 351° (N) 2,527 ? -35.7°
Enters shadow 20:08:23 16° 352° (N) 2,140 ? -35.9°
